SCP
0 -0 0 -0 0 0 0 -0 0 -0 0 0 0 0 0 0 0 0 0 0 0 0 -0 -0 0 0 0 -0 0 0 0 0 0 0 0 0 -0 -0 0 0 0 0 -0 -0 -0 -0 -0 -0 -0
0 -0 0 -0 0 0 0 0 0 -0 0 -0 0 0 0 0 0 0 0 0 0 0 0 -0 0 -0 -0 -0 -0 0 0 -0 0 0 0 0 -0 -0 -0 0 0 0 0 -0 -0 -0 0 0 0
-0 0 -0 -0 0 0 0 0 0 -0 -0 0 0 0 0 0 0 -0 0 -0 0 -0 -0 -0 -0 -0 -0 -0 -0 0 0 0 0 0 -0 0 -0 -0 0 0 0 0 -0 -0 -0 -0 -0 0 0
0 0 -0 0 0 0 0 0 0 -0 0 0 0 0 -0 0 0 0 0 0 -0 -0 -0 -0 -0 -0 -0 -0 -0 0 0 0 0 -0 -0 0 -0 -0 -0 -0 -0 -0 -0 -0 -0 0 0 0 0
0 0 0 0 0 -0 -0 0 0 0 0 0 0 0 0 -0 0 0 -0 0 0 0 -0 -0 0 0 0 0 0 0 0 0 0 -0 -0 -0 -0 -0 -0 -0 -0 -0 0 0 0 0 0 0 0
0 0 0 0 0 0 -0 -0 -0 0 0 0 0 0 0 0 -0 0 -0 -0 -0 0 -0 -0 0 0 0 0 0 0 0 0 0 0 -0 -0 -0 -0 -0 -0 0 0 0 0 0 0 0 0 0
0 0 0 0 0 0 -0 -0 -0 -0 0 0 0 0 0 0 0 0 0 0 0 0 0 0 0 0 0 0 0 0 0 0 0 0 -0 -0 -0 -0 -0 0 0 0 0 0 0 0 0 0 0
0 0 0 0 0 0 0 -0 -0 -0 0 0 0 0 0 0 0 0 0 0 0 0 0 0 0 0 0 0 0 0 0 0 0 0 0 0 0 0 0 0 0 0 0 0 0 0 0 0 0
0 0 0 0 0 0 0 0 0 0 0 0 0 0 0 0 0 0 0 0 0 0 0 0 0 0 0 0 0 0 0 0 0 0 0 0 0 0 0 0 0 0 0 0 0 0 0 0 0
0 0 0 0 0 0 0 0 0 0 -0 0 0 0 0 0 0 0 0 0 0 0 0 0 0 0 0 0 0 0 0 0 0 0 0 0 0 0 0 0 0 0 0 0 0 0 0 0 0
0 0 0 0 0 0 0 0 0 0 0 0 0 0 0 0 0 0 0 0 -0 0 0 0 0 0 0 0 0 0 0 0 0 0 0 0 0 0 0 0 0 0 0 0 0 0 0 0 0
0 0 0 0 0 0 0 0 0 0 0 0 0 0 0 -0 0 0 0 0 0 0 0 0 0 0 0 0 0 0 0 0 0 0 0 0 0 0 0 0 0 0 0 0 0 0 0 0 0
0 0 0 0 0 0 0 0 0 0 0 0 0 0 0 0 0 0 0 0 0 0 0 0 0 0 0 0 0 0 0 0 0 0 0 0 0 0 0 0 0 0 0 0 0 0 0 0 0
0 0 0 0 0 0 0 0 0 0 0 0 0 0 0 0 0 -0 -0 0 0 0 0 0 0 0 0 0 0 0 0 0 0 0 0 0 0 0 0 0 0 0 0 0 0 0 0 0 0
0 0 0 0 0 0 0 0 0 0 0 0 0 0 0 0 0 -0 0 -0 0 0 0 0 0 0 0 0 0 0 0 0 0 0 0 0 0 0 0 0 0 0 0 0 0 0 0 0 0
0 0 0 0 0 0 0 0 0 0 0 0 0 0 0 0 0 0 0 0 0 0 0 0 0 0 0 0 0 0 0 0 0 0 0 0 0 0 0 0 0 0 0 0 0 0 0 0 0
0 0 0 0 0 0 0 0 0 0 0 0 0 0 0 0 0 0 0 0 0 0 0 0 0 0 0 0 0 0 0 0 0 0 0 0 0 0 0 0 0 0 0 0 0 0 0 0 0
0 0 0 0 0 0 0 0 0 0 0 0 0 0 0 0 0 0 0 0 0 0 0 0 0 0 0 0 0 0 0 0 0 0 0 0 0 0 0 0 0 0 0 0 0 0 0 0 0
0 0 0 0 0 0 0 0 0 0 0 0 0 0 0 0 0 0 0 0 0 0 0 0 0 0 0 0 0 0 0 0 0 0 0 0 0 0 0 0 0 0 0 0 0 0 0 0 0
0 0 0 0 0 0 0 0 0 0 0 0 0 0 0 0 0 0 0 0 0 0 0 0 0 0 0 0 0 0 0 0 0 0 0 0 0 0 0 0 0 0 0 0 0 0 0 0 0
0 0 0 0 0 0 0 0 -0 0 0 0 0 0 0 0 0 0 0 0 0 0 0 0 0 0 0 0 0 0 0 0 0 0 0 0 0 0 0 0 0 0 0 0 0 0 0 0 0
0 0 0 0 0 0 0 -0 0 0 0 0 0 0 0 0 0 0 0 0 0 0 0 0 0 0 0 0 0 0 0 0 0 0 0 0 0 0 0 0 0 0 0 0 0 0 0 0 0
0 0 0 0 0 0 0 0 -0 0 0 0 0 0 0 0 0 0 0 0 0 0 0 0 0 0 0 0 0 0 0 0 0 0 0 0 0 0 0 0 0 0 0 0 0 0 0 0 0
0 0 0 0 0 0 0 0 -0 -0 -0 -0 0 0 0 0 0 0 0 0 0 0 0 0 0 0 0 0 0 0 0 0 0 0 0 0 0 0 0 0 0 0 0 0 0 0 0 0 0
0 0 0 0 0 0 0 0 0 0 0 0 0 0 0 0 0 0 0 0 0 0 0 0 0 0 0 0 0 0 0 0 0 0 0 0 0 0 0 0 0 0 0 0 0 0 0 0 0
0 0 0 0 0 0 0 0 0 0 0 0 0 0 0 0 0 0 0 0 0 0 0 0 0 0 0 0 0 0 0 0 0 0 0 0 0 0 0 0 0 0 0 0 0 0 0 0 0
0 0 0 0 0 0 0 0 0 0 0 -0 0 0 0 0 0 0 0 0 0 0 0 0 0 0 0 0 0 0 0 0 0 0 0 0 0 0 0 0 0 0 0 0 0 0 0 0 0
0 0 0 0 0 0 0 0 0 0 0 -0 0 0 0 0 0 0 0 0 0 0 0 0 0 0 0 0 0 0 0 0 0 0 0 0 0 0 0 0 0 0 0 0 0 0 0 0 0
0 0 0 0 0 0 0 0 0 0 -0 -0 0 0 0 0 0 0 0 0 0 0 0 0 0 0 0 0 0 0 0 0 0 0 0 0 0 0 0 0 0 0 0 0 0 0 0 0 0
0 0 0 0 0 0 0 0 0 0 0 0 0 0 0 0 0 0 0 0 0 0 0 0 0 0 0 0 0 0 0 0 0 0 0 0 0 0 0 0 0 0 0 0 0 0 0 0 0
Wind_Speed_500mb
31 4 14 7 6 3 9 10 1 14 13 6 11 8 3 6 7 6 24 37 40 37 35 34 25 18 14 18 15 16 19 24 28 28 22 15 13 20 22 16 19 22 21 21 22 23 24 24 24
28 3 8 3 5 5 10 9 16 13 6 12 10 8 6 4 4 6 35 39 40 37 34 32 25 19 14 14 14 16 17 19 26 24 18 13 9 15 20 19 17 18 18 16 19 20 20 21 23
22 3 6 4 2 3 6 16 13 14 16 10 7 3 1 3 5 25 26 41 39 36 33 29 23 19 15 14 12 14 17 20 17 19 13 12 11 14 13 16 15 15 14 12 13 15 17 17 19
16 1 5 4 9 5 2 14 15 20 8 6 4 5 2 8 11 25 35 42 41 37 32 25 22 19 17 16 15 14 17 21 19 9 13 16 12 11 10 11 14 12 10 8 8 10 11 12 13
11 3 2 6 7 5 3 11 19 22 9 11 10 6 5 7 19 29 35 42 41 37 32 25 19 17 14 13 15 15 19 20 23 16 7 9 12 10 9 9 9 10 8 5 2 5 5 7 8
4 4 4 6 7 7 6 15 16 15 9 10 8 7 6 15 26 28 38 39 37 36 32 28 22 17 14 14 16 17 20 21 21 22 17 10 8 9 8 7 5 5 5 5 4 2 1 3 5
7 6 4 2 8 8 9 18 16 17 12 13 4 8 8 22 34 27 37 36 39 39 35 30 25 20 17 15 16 17 18 17 15 18 21 17 11 7 6 7 8 8 8 8 7 7 7 7 8
4 3 5 4 10 6 16 20 8 18 12 7 10 8 8 28 33 35 39 36 36 35 33 31 28 25 20 18 17 16 17 16 13 14 19 13 5 2 1 1 4 9 10 11 12 13 13 13 13
1 6 4 5 10 5 16 17 10 10 7 13 13 5 10 31 36 43 47 43 43 45 41 38 34 28 23 20 19 18 18 19 19 18 17 15 14 11 10 8 7 9 10 15 16 17 18 17 17
8 8 6 2 7 5 18 21 19 12 16 14 15 22 18 24 43 48 52 50 49 47 45 42 37 33 29 26 24 23 21 21 21 20 19 20 18 17 15 14 13 13 14 13 16 22 20 20 22
6 17 11 10 10 6 14 17 15 19 15 24 24 23 28 29 46 50 50 48 44 39 40 40 39 36 34 32 30 28 26 25 25 24 23 23 22 20 19 20 19 18 19 19 19 19 21 24 26
12 13 7 3 11 9 10 9 12 29 20 13 20 16 27 32 45 51 51 49 47 46 40 39 40 40 37 35 34 32 32 31 29 28 27 27 25 24 23 23 23 22 23 23 23 24 25 27 30
8 8 12 4 9 10 9 17 17 28 31 18 22 26 23 29 35 42 43 43 43 44 40 40 39 39 37 36 35 37 37 34 32 33 33 32 31 30 29 27 27 27 28 28 27 28 29 30 33
2 9 2 6 12 9 12 13 7 21 24 31 26 29 28 31 33 36 43 45 46 43 42 38 39 38 37 37 36 34 35 35 37 37 36 35 35 35 35 34 33 32 32 32 32 32 33 35 36
2 6 10 15 11 9 11 22 28 29 18 31 33 26 30 30 36 40 36 39 41 41 42 43 38 36 37 37 37 35 33 33 33 33 33 36 36 36 36 35 35 32 32 32 34 34 36 38 40
6 4 16 10 18 9 18 42 32 41 32 34 38 34 33 35 41 42 40 39 39 39 42 39 42 41 42 42 40 38 36 34 35 33 34 34 35 34 35 35 34 31 32 33 36 37 40 40 41
6 18 18 13 21 14 27 31 29 25 29 50 46 36 38 45 47 49 47 45 44 43 44 44 45 46 47 45 44 44 43 43 41 38 36 35 34 34 37 37 35 35 36 37 38 40 43 45 46
18 16 15 19 4 13 27 39 25 12 20 42 43 46 49 47 58 52 52 51 51 48 50 49 48 48 49 49 49 51 51 48 46 43 38 35 33 36 38 39 39 39 42 41 41 41 42 49 49
10 22 19 6 5 10 31 39 39 47 41 39 36 38 48 57 64 64 64 61 55 60 60 60 56 51 51 55 55 55 53 50 49 43 38 33 32 33 37 39 39 39 42 41 42 43 46 47 49
19 19 19 12 4 8 23 37 36 47 48 59 63 63 59 48 45 53 59 68 70 70 67 64 61 60 59 60 59 57 54 53 48 44 38 36 35 35 37 39 40 38 38 39 41 41 43 45 43
28 33 23 17 7 11 21 48 45 35 61 62 60 61 60 60 63 65 73 72 65 70 75 76 73 68 65 66 68 66 64 63 59 52 43 39 37 36 37 35 34 34 34 36 39 42 42 43 45
27 20 21 18 11 15 4 23 33 9 20 24 44 50 62 72 83 81 75 75 79 83 73 61 59 62 64 62 69 74 67 64 62 57 51 45 40 40 41 39 38 37 38 41 44 46 47 47 47
10 15 20 22 22 20 32 18 15 4 19 27 38 55 58 52 53 62 69 85 83 77 74 76 75 73 66 63 59 62 65 59 59 60 58 55 53 51 50 47 44 42 43 46 47 45 45 46 44
20 17 11 6 7 16 34 27 32 28 21 23 32 35 35 37 37 49 59 54 61 66 76 74 66 69 66 62 58 59 57 53 56 60 61 60 56 53 51 47 46 46 44 40 36 36 37 40 43
27 25 7 8 11 18 7 24 45 11 17 23 29 26 19 22 26 32 40 38 37 48 58 62 75 70 72 73 70 67 61 59 56 56 58 55 51 49 47 45 42 38 33 33 35 36 38 40 43
32 32 11 17 12 9 7 23 16 10 27 36 41 49 51 49 44 35 28 34 42 43 48 52 53 59 67 70 71 69 61 57 57 56 52 48 44 40 36 33 31 31 31 30 31 33 35 36 39
20 27 22 4 5 6 14 19 19 22 25 36 36 28 30 29 28 29 29 28 26 30 37 43 53 50 50 51 54 53 50 50 46 41 40 38 33 30 28 27 27 27 28 30 31 32 33 36 37
25 20 11 12 13 18 22 21 24 8 17 29 35 37 27 20 21 27 23 19 16 23 29 30 31 35 40 43 43 43 41 37 37 35 33 30 27 25 25 24 25 27 29 31 33 34 36 36 38
16 10 12 14 19 14 14 17 4 21 24 21 13 18 16 20 14 15 16 15 14 17 23 27 31 36 39 40 38 35 35 35 33 31 29 27 27 26 23 23 25 27 31 34 36 37 37 38 40
41 36 28 16 21 23 27 36 8 2 5 9 18 13 6 6 7 5 3 7 14 19 25 31 37 40 41 38 34 33 33 34 34 33 32 33 31 27 24 25 26 29 34 37 36 36 37 38 41
Wind_Direction_500mb
2 29 159 145 225 254 148 154 138 139 169 157 160 204 312 351 337 35 155 162 162 161 161 161 172 168 154 154 143 141 143 143 156 158 153 143 103 133 139 139 108 105 97 93 84 79 78 78 76
359 91 151 120 229 215 154 149 176 148 103 145 156 192 242 74 76 135 150 158 162 161 163 173 175 175 170 156 147 144 143 142 150 158 158 157 150 135 136 137 118 111 107 97 86 80 77 74 71
352 102 212 139 144 208 185 180 164 143 133 155 174 212 166 101 137 153 167 163 160 166 167 173 174 176 175 164 155 153 149 143 149 149 161 164 151 134 124 123 119 114 115 101 88 83 81 76 71
352 38 79 258 113 99 106 169 160 156 184 191 202 188 128 176 150 164 169 169 166 168 171 169 174 178 177 175 169 166 159 149 157 160 149 152 147 144 135 127 130 126 120 119 100 87 77 73 67
6 7 183 115 104 116 162 161 172 171 176 179 188 157 153 197 171 166 171 172 171 172 174 174 174 175 176 178 176 174 170 167 155 174 171 157 162 159 162 156 149 144 148 152 111 98 78 56 53
6 331 238 182 120 119 151 168 170 195 190 171 213 184 144 175 170 169 170 174 177 178 177 181 179 179 179 177 180 177 183 183 172 169 178 201 175 174 175 178 181 181 188 206 218 227 312 352 8
29 346 55 161 138 150 150 167 195 192 200 205 218 200 156 172 168 170 172 175 184 185 185 186 187 186 183 181 188 192 194 191 186 169 172 196 189 166 156 186 201 211 223 242 257 261 267 280 300
23 321 156 183 196 156 152 172 200 207 207 221 192 206 173 187 180 179 177 183 189 193 194 195 197 195 193 192 191 195 200 199 196 188 200 226 238 207 195 270 255 239 238 247 259 269 276 282 291
7 250 230 205 190 143 164 188 185 202 201 202 208 216 184 180 182 181 183 188 192 197 200 201 204 203 201 203 205 205 205 209 215 215 218 231 239 248 260 268 275 280 266 255 255 260 271 278 283
230 252 215 248 225 216 187 203 176 183 203 220 231 232 206 192 192 191 192 195 197 201 204 207 208 208 209 209 212 212 214 217 222 227 230 233 240 248 256 270 278 278 277 272 271 264 266 270 275
192 238 205 202 221 237 198 207 192 202 214 226 224 219 219 205 200 202 203 205 204 205 209 210 209 211 215 217 218 219 222 224 227 230 233 236 240 247 252 260 267 271 274 274 271 266 262 265 271
215 228 220 162 192 177 204 188 212 218 215 216 217 211 221 214 206 206 209 208 207 210 211 211 212 213 217 223 226 226 227 227 230 234 238 241 243 246 250 256 262 267 271 272 270 270 269 271 272
236 217 200 185 202 225 204 218 224 234 231 237 215 219 229 219 213 211 214 216 217 218 217 218 218 220 221 226 230 231 233 234 235 237 240 243 246 249 253 257 262 267 269 271 272 273 275 276 278
353 249 219 197 216 233 236 228 200 241 226 230 228 214 226 223 217 212 212 215 219 220 221 222 223 225 228 233 238 238 237 239 240 242 244 247 250 253 256 259 262 266 270 270 270 274 277 279 281
85 264 252 217 203 229 212 247 232 228 226 221 228 225 223 222 216 219 220 220 224 226 227 227 229 232 235 239 243 246 246 246 245 244 245 246 248 250 254 258 262 265 270 271 274 276 279 281 284
162 254 240 181 195 212 193 249 236 236 230 235 231 228 233 234 225 223 221 226 229 231 233 234 235 236 239 240 243 248 251 252 249 245 242 243 246 249 252 257 262 267 269 272 275 279 281 283 284
194 231 224 268 209 205 207 253 242 243 234 243 240 237 234 239 236 231 227 231 231 236 238 237 239 240 243 246 248 250 251 252 254 253 249 247 247 251 254 260 263 266 267 269 272 276 281 283 285
207 214 221 230 176 235 234 246 250 239 235 246 249 246 243 241 239 237 240 237 240 240 242 244 241 241 244 246 247 248 249 250 253 254 253 253 250 251 256 259 261 262 265 268 273 277 278 283 285
257 221 230 235 229 244 242 251 256 256 249 253 249 249 248 247 248 246 244 247 245 242 242 243 244 243 242 242 242 244 247 250 252 255 255 254 252 249 254 260 262 261 265 271 272 275 279 281 284
222 226 228 265 218 230 277 270 263 260 252 249 250 252 252 254 252 249 248 247 245 245 247 244 243 244 245 247 247 247 251 253 256 257 253 250 249 250 252 256 261 263 265 268 272 275 279 281 288
220 229 227 249 322 243 294 279 258 245 245 247 246 247 252 252 252 252 251 248 247 247 246 244 243 245 250 249 246 244 246 250 250 250 250 248 245 244 246 248 252 259 264 270 274 276 278 283 288
227 218 224 237 262 261 351 282 272 242 242 231 244 243 246 246 250 252 250 248 246 245 247 242 241 243 245 245 244 243 246 251 251 246 248 247 244 240 241 244 251 258 268 275 279 280 282 283 282
221 173 203 223 234 275 244 268 257 246 258 258 242 240 241 245 247 249 250 250 249 249 245 245 245 242 242 242 242 240 241 244 243 245 248 250 248 244 242 244 248 256 269 279 281 282 284 283 286
144 129 106 125 224 251 238 221 256 238 241 248 259 253 253 251 260 259 258 262 261 254 250 245 241 236 236 237 237 237 238 237 239 246 250 249 248 247 246 248 253 260 270 274 275 279 281 283 286
181 175 168 212 208 248 28 209 250 264 256 243 265 261 245 250 253 257 247 257 270 257 242 240 235 236 237 237 239 237 237 237 238 242 246 247 247 247 248 251 254 261 264 268 273 276 279 281 282
197 192 195 216 206 265 158 230 255 258 261 261 257 260 267 267 262 261 258 264 266 256 234 235 234 234 236 236 236 234 228 232 237 239 242 246 247 244 244 246 250 257 264 271 276 277 280 285 289
183 217 214 326 91 273 233 254 268 235 241 247 256 258 265 279 270 245 259 275 268 234 231 228 225 231 230 224 219 221 224 227 232 235 235 234 235 234 236 244 255 265 275 277 281 285 289 293 296
197 170 182 220 227 240 248 264 252 245 227 235 250 256 261 282 271 234 244 268 246 229 224 217 211 205 205 208 209 215 222 229 232 229 225 222 224 232 243 255 265 272 278 284 287 293 296 299 300
192 197 227 213 223 240 266 254 287 255 257 266 269 260 247 273 266 234 235 241 233 208 202 198 196 197 201 206 213 220 230 224 217 215 216 221 231 239 247 259 269 276 282 287 292 296 300 304 304
210 206 193 205 201 236 264 261 103 298 273 265 265 284 282 269 230 220 211 245 236 225 218 212 208 210 214 217 221 228 225 222 220 221 224 227 227 228 238 253 266 276 281 285 291 298 304 309 310
Wind_Speed_850mb
31 4 14 7 6 3 9 10 1 14 13 6 11 8 3 6 7 6 24 37 40 37 35 34 25 18 14 18 15 16 19 24 28 28 22 15 13 20 22 16 19 22 21 21 22 23 24 24 24
28 3 8 3 5 5 10 9 16 13 6 12 10 8 6 4 4 6 35 39 40 37 34 32 25 19 14 14 14 16 17 19 26 24 18 13 9 15 20 19 17 18 18 16 19 20 20 21 23
22 3 6 4 2 3 6 16 13 14 16 10 7 3 1 3 5 25 26 41 39 36 33 29 23 19 15 14 12 14 17 20 17 19 13 12 11 14 13 16 15 15 14 12 13 15 17 17 19
16 1 5 4 9 5 2 14 15 20 8 6 4 5 2 8 11 25 35 42 41 37 32 25 22 19 17 16 15 14 17 21 19 9 13 16 12 11 10 11 14 12 10 8 8 10 11 12 13
11 3 2 6 7 5 3 11 19 22 9 11 10 6 5 7 19 29 35 42 41 37 32 25 19 17 14 13 15 15 19 20 23 16 7 9 12 10 9 9 9 10 8 5 2 5 5 7 8
4 4 4 6 7 7 6 15 16 15 9 10 8 7 6 15 26 28 38 39 37 36 32 28 22 17 14 14 16 17 20 21 21 22 17 10 8 9 8 7 5 5 5 5 4 2 1 3 5
7 6 4 2 8 8 9 18 16 17 12 13 4 8 8 22 34 27 37 36 39 39 35 30 25 20 17 15 16 17 18 17 15 18 21 17 11 7 6 7 8 8 8 8 7 7 7 7 8
4 3 5 4 10 6 16 20 8 18 12 7 10 8 8 28 33 35 39 36 36 35 33 31 28 25 20 18 17 16 17 16 13 14 19 13 5 2 1 1 4 9 10 11 12 13 13 13 13
1 6 4 5 10 5 16 17 10 10 7 13 13 5 10 31 36 43 47 43 43 45 41 38 34 28 23 20 19 18 18 19 19 18 17 15 14 11 10 8 7 9 10 15 16 17 18 17 17
8 8 6 2 7 5 18 21 19 12 16 14 15 22 18 24 43 48 52 50 49 47 45 42 37 33 29 26 24 23 21 21 21 20 19 20 18 17 15 14 13 13 14 13 16 22 20 20 22
6 17 11 10 10 6 14 17 15 19 15 24 24 23 28 29 46 50 50 48 44 39 40 40 39 36 34 32 30 28 26 25 25 24 23 23 22 20 19 20 19 18 19 19 19 19 21 24 26
12 13 7 3 11 9 10 9 12 29 20 13 20 16 27 32 45 51 51 49 47 46 40 39 40 40 37 35 34 32 32 31 29 28 27 27 25 24 23 23 23 22 23 23 23 24 25 27 30
8 8 12 4 9 10 9 17 17 28 31 18 22 26 23 29 35 42 43 43 43 44 40 40 39 39 37 36 35 37 37 34 32 33 33 32 31 30 29 27 27 27 28 28 27 28 29 30 33
2 9 2 6 12 9 12 13 7 21 24 31 26 29 28 31 33 36 43 45 46 43 42 38 39 38 37 37 36 34 35 35 37 37 36 35 35 35 35 34 33 32 32 32 32 32 33 35 36
2 6 10 15 11 9 11 22 28 29 18 31 33 26 30 30 36 40 36 39 41 41 42 43 38 36 37 37 37 35 33 33 33 33 33 36 36 36 36 35 35 32 32 32 34 34 36 38 40
6 4 16 10 18 9 18 42 32 41 32 34 38 34 33 35 41 42 40 39 39 39 42 39 42 41 42 42 40 38 36 34 35 33 34 34 35 34 35 35 34 31 32 33 36 37 40 40 41
6 18 18 13 21 14 27 31 29 25 29 50 46 36 38 45 47 49 47 45 44 43 44 44 45 46 47 45 44 44 43 43 41 38 36 35 34 34 37 37 35 35 36 37 38 40 43 45 46
18 16 15 19 4 13 27 39 25 12 20 42 43 46 49 47 58 52 52 51 51 48 50 49 48 48 49 49 49 51 51 48 46 43 38 35 33 36 38 39 39 39 42 41 41 41 42 49 49
10 22 19 6 5 10 31 39 39 47 41 39 36 38 48 57 64 64 64 61 55 60 60 60 56 51 51 55 55 55 53 50 49 43 38 33 32 33 37 39 39 39 42 41 42 43 46 47 49
19 19 19 12 4 8 23 37 36 47 48 59 63 63 59 48 45 53 59 68 70 70 67 64 61 60 59 60 59 57 54 53 48 44 38 36 35 35 37 39 40 38 38 39 41 41 43 45 43
28 33 23 17 7 11 21 48 45 35 61 62 60 61 60 60 63 65 73 72 65 70 75 76 73 68 65 66 68 66 64 63 59 52 43 39 37 36 37 35 34 34 34 36 39 42 42 43 45
27 20 21 18 11 15 4 23 33 9 20 24 44 50 62 72 83 81 75 75 79 83 73 61 59 62 64 62 69 74 67 64 62 57 51 45 40 40 41 39 38 37 38 41 44 46 47 47 47
10 15 20 22 22 20 32 18 15 4 19 27 38 55 58 52 53 62 69 85 83 77 74 76 75 73 66 63 59 62 65 59 59 60 58 55 53 51 50 47 44 42 43 46 47 45 45 46 44
20 17 11 6 7 16 34 27 32 28 21 23 32 35 35 37 37 49 59 54 61 66 76 74 66 69 66 62 58 59 57 53 56 60 61 60 56 53 51 47 46 46 44 40 36 36 37 40 43
27 25 7 8 11 18 7 24 45 11 17 23 29 26 19 22 26 32 40 38 37 48 58 62 75 70 72 73 70 67 61 59 56 56 58 55 51 49 47 45 42 38 33 33 35 36 38 40 43
32 32 11 17 12 9 7 23 16 10 27 36 41 49 51 49 44 35 28 34 42 43 48 52 53 59 67 70 71 69 61 57 57 56 52 48 44 40 36 33 31 31 31 30 31 33 35 36 39
20 27 22 4 5 6 14 19 19 22 25 36 36 28 30 29 28 29 29 28 26 30 37 43 53 50 50 51 54 53 50 50 46 41 40 38 33 30 28 27 27 27 28 30 31 32 33 36 37
25 20 11 12 13 18 22 21 24 8 17 29 35 37 27 20 21 27 23 19 16 23 29 30 31 35 40 43 43 43 41 37 37 35 33 30 27 25 25 24 25 27 29 31 33 34 36 36 38
16 10 12 14 19 14 14 17 4 21 24 21 13 18 16 20 14 15 16 15 14 17 23 27 31 36 39 40 38 35 35 35 33 31 29 27 27 26 23 23 25 27 31 34 36 37 37 38 40
41 36 28 16 21 23 27 36 8 2 5 9 18 13 6 6 7 5 3 7 14 19 25 31 37 40 41 38 34 33 33 34 34 33 32 33 31 27 24 25 26 29 34 37 36 36 37 38 41
Wind_Direction_850mb
2 29 159 145 225 254 148 154 138 139 169 157 160 204 312 351 337 35 155 162 162 161 161 161 172 168 154 154 143 141 143 143 156 158 153 143 103 133 139 139 108 105 97 93 84 79 78 78 76
359 91 151 120 229 215 154 149 176 148 103 145 156 192 242 74 76 135 150 158 162 161 163 173 175 175 170 156 147 144 143 142 150 158 158 157 150 135 136 137 118 111 107 97 86 80 77 74 71
352 102 212 139 144 208 185 180 164 143 133 155 174 212 166 101 137 153 167 163 160 166 167 173 174 176 175 164 155 153 149 143 149 149 161 164 151 134 124 123 119 114 115 101 88 83 81 76 71
352 38 79 258 113 99 106 169 160 156 184 191 202 188 128 176 150 164 169 169 166 168 171 169 174 178 177 175 169 166 159 149 157 160 149 152 147 144 135 127 130 126 120 119 100 87 77 73 67
6 7 183 115 104 116 162 161 172 171 176 179 188 157 153 197 171 166 171 172 171 172 174 174 174 175 176 178 176 174 170 167 155 174 171 157 162 159 162 156 149 144 148 152 111 98 78 56 53
6 331 238 182 120 119 151 168 170 195 190 171 213 184 144 175 170 169 170 174 177 178 177 181 179 179 179 177 180 177 183 183 172 169 178 201 175 174 175 178 181 181 188 206 218 227 312 352 8
29 346 55 161 138 150 150 167 195 192 200 205 218 200 156 172 168 170 172 175 184 185 185 186 187 186 183 181 188 192 194 191 186 169 172 196 189 166 156 186 201 211 223 242 257 261 267 280 300
23 321 156 183 196 156 152 172 200 207 207 221 192 206 173 187 180 179 177 183 189 193 194 195 197 195 193 192 191 195 200 199 196 188 200 226 238 207 195 270 255 239 238 247 259 269 276 282 291
7 250 230 205 190 143 164 188 185 202 201 202 208 216 184 180 182 181 183 188 192 197 200 201 204 203 201 203 205 205 205 209 215 215 218 231 239 248 260 268 275 280 266 255 255 260 271 278 283
230 252 215 248 225 216 187 203 176 183 203 220 231 232 206 192 192 191 192 195 197 201 204 207 208 208 209 209 212 212 214 217 222 227 230 233 240 248 256 270 278 278 277 272 271 264 266 270 275
192 238 205 202 221 237 198 207 192 202 214 226 224 219 219 205 200 202 203 205 204 205 209 210 209 211 215 217 218 219 222 224 227 230 233 236 240 247 252 260 267 271 274 274 271 266 262 265 271
215 228 220 162 192 177 204 188 212 218 215 216 217 211 221 214 206 206 209 208 207 210 211 211 212 213 217 223 226 226 227 227 230 234 238 241 243 246 250 256 262 267 271 272 270 270 269 271 272
236 217 200 185 202 225 204 218 224 234 231 237 215 219 229 219 213 211 214 216 217 218 217 218 218 220 221 226 230 231 233 234 235 237 240 243 246 249 253 257 262 267 269 271 272 273 275 276 278
353 249 219 197 216 233 236 228 200 241 226 230 228 214 226 223 217 212 212 215 219 220 221 222 223 225 228 233 238 238 237 239 240 242 244 247 250 253 256 259 262 266 270 270 270 274 277 279 281
85 264 252 217 203 229 212 247 232 228 226 221 228 225 223 222 216 219 220 220 224 226 227 227 229 232 235 239 243 246 246 246 245 244 245 246 248 250 254 258 262 265 270 271 274 276 279 281 284
162 254 240 181 195 212 193 249 236 236 230 235 231 228 233 234 225 223 221 226 229 231 233 234 235 236 239 240 243 248 251 252 249 245 242 243 246 249 252 257 262 267 269 272 275 279 281 283 284
194 231 224 268 209 205 207 253 242 243 234 243 240 237 234 239 236 231 227 231 231 236 238 237 239 240 243 246 248 250 251 252 254 253 249 247 247 251 254 260 263 266 267 269 272 276 281 283 285
207 214 221 230 176 235 234 246 250 239 235 246 249 246 243 241 239 237 240 237 240 240 242 244 241 241 244 246 247 248 249 250 253 254 253 253 250 251 256 259 261 262 265 268 273 277 278 283 285
257 221 230 235 229 244 242 251 256 256 249 253 249 249 248 247 248 246 244 247 245 242 242 243 244 243 242 242 242 244 247 250 252 255 255 254 252 249 254 260 262 261 265 271 272 275 279 281 284
222 226 228 265 218 230 277 270 263 260 252 249 250 252 252 254 252 249 248 247 245 245 247 244 243 244 245 247 247 247 251 253 256 257 253 250 249 250 252 256 261 263 265 268 272 275 279 281 288
220 229 227 249 322 243 294 279 258 245 245 247 246 247 252 252 252 252 251 248 247 247 246 244 243 245 250 249 246 244 246 250 250 250 250 248 245 244 246 248 252 259 264 270 274 276 278 283 288
227 218 224 237 262 261 351 282 272 242 242 231 244 243 246 246 250 252 250 248 246 245 247 242 241 243 245 245 244 243 246 251 251 246 248 247 244 240 241 244 251 258 268 275 279 280 282 283 282
221 173 203 223 234 275 244 268 257 246 258 258 242 240 241 245 247 249 250 250 249 249 245 245 245 242 242 242 242 240 241 244 243 245 248 250 248 244 242 244 248 256 269 279 281 282 284 283 286
144 129 106 125 224 251 238 221 256 238 241 248 259 253 253 251 260 259 258 262 261 254 250 245 241 236 236 237 237 237 238 237 239 246 250 249 248 247 246 248 253 260 270 274 275 279 281 283 286
181 175 168 212 208 248 28 209 250 264 256 243 265 261 245 250 253 257 247 257 270 257 242 240 235 236 237 237 239 237 237 237 238 242 246 247 247 247 248 251 254 261 264 268 273 276 279 281 282
197 192 195 216 206 265 158 230 255 258 261 261 257 260 267 267 262 261 258 264 266 256 234 235 234 234 236 236 236 234 228 232 237 239 242 246 247 244 244 246 250 257 264 271 276 277 280 285 289
183 217 214 326 91 273 233 254 268 235 241 247 256 258 265 279 270 245 259 275 268 234 231 228 225 231 230 224 219 221 224 227 232 235 235 234 235 234 236 244 255 265 275 277 281 285 289 293 296
197 170 182 220 227 240 248 264 252 245 227 235 250 256 261 282 271 234 244 268 246 229 224 217 211 205 205 208 209 215 222 229 232 229 225 222 224 232 243 255 265 272 278 284 287 293 296 299 300
192 197 227 213 223 240 266 254 287 255 257 266 269 260 247 273 266 234 235 241 233 208 202 198 196 197 201 206 213 220 230 224 217 215 216 221 231 239 247 259 269 276 282 287 292 296 300 304 304
210 206 193 205 201 236 264 261 103 298 273 265 265 284 282 269 230 220 211 245 236 225 218 212 208 210 214 217 221 228 225 222 220 221 224 227 227 228 238 253 266 276 281 285 291 298 304 309 310